This demonstration page uses our WeatherBlox Daily Observations layout. Learn more.

Left ArrowRight Arrow

39.08367, -84.50855

Hourly Observations for April 28, 2015

Temp ( °F °C ) Dew Point ( °F °C ) Humidity (%) Winds ( mph kmh ) Pressure ( in mb ) Visibility ( mi km ) Precip ( " mm )
12:53 am 00:53 Mostly Clear 47 8.3 38 3.3 71 71 ENE 8 13 30.09 1019 10 16 N/A
1:53 am 01:53 Clear 42 5.6 38 3.3 85 85 N N/A 30.09 1019 10 16 N/A
2:53 am 02:53 Clear 40 4.4 38 3.3 93 93 N N/A 30.09 1019 10 16 N/A
3:53 am 03:53 Clear 39 3.9 38 3.3 96 96 N N/A 30.09 1019 9 14 N/A
4:53 am 04:53 Clear 38 3.3 37 2.8 97 97 N N/A 30.11 1020 7 11 N/A
5:53 am 05:53 Clear with Mist and Fog 36 2.2 35 1.7 97 97 N N/A 30.12 1020 5 8 N/A
6:53 am 06:53 Sunny with Mist and Fog 34 1.1 34 1.1 100 100 NE 5 7 30.13 1020 4 6 N/A
7:53 am 07:53 Sunny with Mist and Fog 39 3.9 38 3.3 96 96 N N/A 30.14 1021 4 6 N/A
8:53 am 08:53 Sunny 47 8.3 40 4.4 77 77 ENE 5 7 30.14 1021 10 16 N/A
9:53 am 09:53 Sunny 50 10 38 3.3 63 63 NE 8 13 30.14 1021 10 16 N/A
10:54 am 10:54 Sunny 54 12.2 40 4.4 59 59 ENE 7 11 30.14 1021 10 16 N/A
11:53 am 11:53 Sunny 56 13.3 38 3.3 51 51 VRB 6 9 30.12 1020 10 16 N/A
12:53 pm 12:53 Sunny 58 14.4 39 3.9 50 50 NNE 9 15 30.09 1019 10 16 N/A
1:53 pm 13:53 Sunny 59 15 40 4.4 49 49 ENE 10 17 30.06 1018 10 16 N/A
2:53 pm 14:53 Sunny 61 16.1 42 5.6 50 50 undefined N/A 30.03 1017 10 16 N/A
3:53 pm 15:53 Sunny 62 16.7 42 5.6 48 48 NNE 12 19 29.99 1016 10 16 N/A
4:53 pm 16:53 Sunny 62 16.7 39 3.9 43 43 E 6 9 29.97 1015 10 16 N/A
5:53 pm 17:53 Sunny 62 16.7 40 4.4 44 44 E 10 17 29.97 1015 10 16 N/A
6:53 pm 18:53 Sunny 62 16.7 39 3.9 43 43 NE 5 7 29.97 1015 10 16 N/A
7:53 pm 19:53 Sunny 59 15 40 4.4 49 49 NE 6 9 29.96 1015 10 16 N/A
8:53 pm 20:53 Clear 53 11.7 42 5.6 66 66 N N/A 29.96 1015 10 16 N/A
9:53 pm 21:53 Clear 49 9.4 42 5.6 77 77 N N/A 29.97 1015 10 16 N/A
10:53 pm 22:53 Clear 46 7.8 43 6.1 89 89 N N/A 29.96 1015 10 16 N/A
11:53 pm 23:53 Clear 45 7.2 43 6.1 93 93 N N/A 29.96 1015 10 16 N/A

Powered by AerisWeather